Location: Fernhill
(41.0167°S, 175.6333°E)
Time: 01:14:56
(UTC+00:00)

Meteor 2-6 Rocket - Pass Details

Date: 08 November 2025
Orbit: 806 x 912 km, 81.3° (Epoch: 13 December)

Event Time Altitude Azimuth Distance (km) Brightness Sun altitude
Rises 10:34:01 0° 190° (S) 3,505 8.6 -28.8°
Reaches altitude 10° 10:36:31 10° 190° (S) 2,543 7.6 -29.0°
Enters shadow 10:41:53 78° 187° (S) 882 4.2 -29.4°
